Hourly Data Report for September 18, 2016

All times are specified in Local Standard Time (LST). Add 1 hour to adjust for Daylight Saving Time where and when it is observed.

CORAL HARBOUR A
NUNAVUT

64°11'36.000" N
83°21'34.000" W
62.20 m
2301002
71915
YZS

Download Data

Hourly Data (September 2016)
Hourly Data Report for September 18, 2016
Temp Definition
°C
Dew Point Temp Definition
°C
Rel Hum Definition
%
Wind Dir Definition
10's deg

Wind Spd Definition
km/h
Visibility Definition
km
Stn Press Definition
kPa
Hmdx Definition


Wind Chill Definition


Weather Definition


TIME
00:00 Legend Double Dagger 2.3 1.0 91 19 16 24.1 100.94     Snow
01:00 Legend Double Dagger 2.2 1.3 94 18 16 24.1 100.94     Mostly Cloudy
02:00 Legend Double Dagger 2.4 1.2 92 18 16 24.1 100.93     LegendNANA
03:00 Legend Double Dagger 2.4 1.2 92 18 19 24.1 100.90     LegendNANA
04:00 Legend Double Dagger 2.6 1.1 90 18 21 24.1 100.87     Cloudy
05:00 Legend Double Dagger 2.9 1.3 89 18 25 24.1 100.86     LegendNANA
06:00 Legend Double Dagger 2.9 1.4 90 18 23 24.1 100.85     LegendNANA
07:00 Legend Double Dagger 2.8 1.6 92 18 17 24.1 100.84     Drizzle
08:00 Legend Double Dagger 3.0 1.4 89 18 23 24.1 100.85     Drizzle
09:00 Legend Double Dagger 3.3 1.5 88 17 30 24.1 100.83     LegendNANA
10:00 Legend Double Dagger 3.5 1.4 86 17 32 24.1 100.80     Cloudy
11:00 Legend Double Dagger 3.7 1.6 86 16 29 24.1 100.76     LegendNANA
12:00 Legend Double Dagger 4.0 1.9 86 15 28 24.1 100.74     LegendNANA
13:00 Legend Double Dagger 4.2 2.2 87 15 28 24.1 100.68     Cloudy
14:00 Legend Double Dagger 4.3 2.2 86 15 32 24.1 100.64     LegendNANA
15:00 Legend Double Dagger 4.4 2.1 85 16 27 24.1 100.60     LegendNANA
16:00 Legend Double Dagger 4.4 2.3 86 16 29 24.1 100.55     Cloudy
17:00 Legend Double Dagger 4.1 2.8 91 15 25 24.1 100.51     LegendNANA
18:00 Legend Double Dagger 4.0 2.8 92 16 27 24.1 100.46     Rain
19:00 Legend Double Dagger 3.6 2.9 95 14 22 19.3 100.45     Rain
20:00 Legend Double Dagger 3.8 3.1 95 15 21 19.3 100.44     Rain
21:00 Legend Double Dagger 3.8 3.1 95 16 28 19.3 100.40     Rain
22:00 Legend Double Dagger 3.7 3.1 96 15 26 24.1 100.35     Rain
23:00 Legend Double Dagger 3.7 3.3 97 15 21 24.1 100.33     Rain

Notes on Data Quality.

Legend

  • E = Estimated
  • M = Missing
  • NA = Not Available
  • ‡ = Partner data that is not subject to review by the National Climate Archives
Date modified: